Showing default

TYCHE, 60496

Orbit data source: Space-Track

TYCHE, 60496 is a UK payload satellite in SSO that was launched on Fri, 16 Aug 2024 UTC via an FALCON 9 launch vehicle from the Air Force Western Test Range (AFWTR). Payload-class satellites include a variety of spacecraft equipped with specific instruments for various scientific and technological missions. These include communications satellites like Starlink; space stations such as the ISS; scientific satellites like the Hubble; Earth observation satellites from companies like Planet Labs, Umbra, and HawkEye 360; GPS; miniature CubeSats for education and research; and military/defense satellites.

Loading next visibility...
Identifier
60496, 2024-149AE
Orbit
SSO
Country
Flag of UKUK
Related business
Manufacturer
SSTL
Mission
Operational Commercial Imaging
Bus & Motor
CARBONITE+, Unknown motor
Mass
150 kg wet, 150 kg dry
Launch date (UTC)
2024-08-16 (1 year ago)
Launch vehicle
FALCON 9
Launch site
Air Force Western Test Range (AFWTR)
Object type
Payload
Rocket body
Debris
Shape & HBR
Box, 0.5 m
Radar Cross Section
0.780 m², Large (>1 m²)

Expand to show TLE details & history
Last TLE update: 10 hours ago

TLE from 10 hours ago
0 TYCHE
1 60496U 24149AE  25260.90125770  .00005252  00000-0  21655-3 0  9997
2 60496  97.4038 336.9982 0004882 156.4238 203.7224 15.24488447 60383
Epoch: 2025-09-17T21:37Z
TLE epoch observation values (Epoch: 2025-09-17T21:37:48.665Z)
Latitude
-0.00003°
Longitude
15.47487°
Altitude
498.49 km
Speed
7.614 km/s
True Right ascension
22h 27m 59s
True Declination
0° 00' 00"
Sunlit
Object was in full shadow at epoch
Visualization orbit readout
Latitude
Unknown
Longitude
Unknown
Altitude
Unknown
Speed
Unknown
Apparent Right ascension
Unknown
Apparent Declination
Unknown
Sunlit
N/A
Visualization observer readout
Local Sidereal Time
00:11:37
Azimuth
Unknown
Elevation
Unknown
Doppler factor
Unknown
Orbital elements
Apogee altitude
492.634 km
Perigee altitude
485.929 km
Semi-major axis
6,867.419 km
Eccentricity
0.00049
Inclination
97.4038°
RAAN
336.9982°
Arg. of periapsis
156.4238°
True anomaly
203.69991°
Mean anomaly
203.7224°
Eccentric anomaly
203.71115°
Mean motion
3.81376 °/min
Orbital period
94.4 mins
BSTAR
0.00021655
Loading maneuver chart data...
Computing Atmospheric mass density...
Loading historical data...
Loading historical data...
Loading historical data...
Loading historical data...
Loading historical data...
Loading historical data...
Loading historical data...

Documentation

Showing up to 5 results
|